Tracking 19709 objects as of 19-Jun-2019
HD Live streaming from Space Station
objects crossing your sky now

COSMOS 1348 DEB

Track COSMOS 1348 DEB now!


NORAD ID: 32771
Int'l Code: 1982-029E
Perigee: 7,039.5 km
Apogee: 34,172.6 km
Inclination: 71.4 °
Period: 734.9 minutes
Semi major axis: 26977 km
RCS: 0.01 m2 (small)
Launch date: April 7, 1982
Source: Commonwealth of Independent States (former USSR) (CIS)
Launch site: PLESETSK MISSILE AND SPACE COMPLEX (PKMTR)

Note: This is SATELLITE DEBRIS
aabbcc
Your satellite tracking list
Your tracking list is empty




NASA's NSSDC Master Catalog

Two Line Element Set (TLE):
1 32771U 82029E   11119.26152229 +.00000039 +00000-0 +10000-3 0  9999
2 32771 071.4236 024.9352 5028930 150.4083 251.2128 01.95935068037533
Source of the keplerian elements: AFSPC